Regional Weather Roundup
Issued by NWS

Home | Current Version | Previous Version | Text Only | Print | Product List | Glossary Off
Versions: 1 2 3 4 5 6 7 8 9 10 11 12 13 14 15 16 17 18 19 20 21 22 23 24 25 26 27 28 29 30 31 32 33 34 35 36 37 38 39 40 41 42 43 44 45 46 47 48 49 50

000
ASUS43 KMPX 201810
RWRMN
WEATHER ROUNDUP FOR MINNESOTA
NATIONAL WEATHER SERVICE TWIN CITIES/CHANHASSEN MN
100 PM CDT SAT SEP 20 2014


NOTE: "FAIR" INDICATES FEW OR NO CLOUDS BELOW 12,000 FEET WITH NO
SIGNIFICANT WEATHER AND/OR OBSTRUCTIONS TO VISIBILITY. N/A MEANS
CURRENT SKY AND/OR WEATHER CONDITIONS ARE NOT AVAILABLE.

MNZ060>063-068>070-201900-
   Twin Cities Metro

CITY           SKY/WX    TMP DP  RH WIND       PRES   REMARKS
TWIN CITIES    MOSUNNY   74  56  53 W9        29.79F
6HR MIN TEMP:  63; 6HR MAX TEMP:  74;

ST PAUL        SUNNY     74  55  51 NW13      29.79F
CRYSTAL        SUNNY     74  54  49 NW9G20    29.79S
BLAINE         MOSUNNY   73  57  56 W10       29.79F
LAKEVILLE      SUNNY     72  57  60 W14       29.80F
EDEN PRAIRIE   SUNNY     74  56  53 NW15G21   29.80F
6HR MIN TEMP:  63; 6HR MAX TEMP:  74;

SOUTH ST PAUL  SUNNY     74  55  51 W10       29.79S
LAKE ELMO      FAIR      72  59  64 W12G20    29.80S
$$
MNZ001>005-007-008-013>017-022>024-027-028-201900-
   Northwest Minnesota

CITY           SKY/WX    TMP DP  RH WIND       PRES   REMARKS
BEMIDJI        CLOUDY    61  54  76 W8        29.76F
HALLOCK        RAIN      57  55  94 W12       29.74R
ROSEAU         CLOUDY    61  52  72 SW7       29.72F
WARROAD        PTSUNNY   59  50  72 SW3       29.73S
THIEF RVR FALL CLOUDY    63  54  72 SW12      29.72F
CROOKSTON      CLOUDY    66  57  72 SW12      29.72F
FOSSTON        PTSUNNY   66  55  68 SW8G17    29.76F
DETROIT LAKES  MOSUNNY   66  55  68 W13       29.79F
MOORHEAD       MOSUNNY   70  61  73 SW7       29.78F
PARK RAPIDS    PTSUNNY   65  55  70 W8        29.78F
MAHNOMEN       FAIR      67  55  66 W12       29.76F
$$
MNZ006-009>011-018-025>026-201900-
   North Central Minnesota

CITY           SKY/WX    TMP DP  RH WIND       PRES   REMARKS
BAUDETTE       MOSUNNY   60  46  59 CALM      29.72F
FLAG ISLAND    MOSUNNY   54  46  76 CALM      29.70F
INTL FALLS     PTSUNNY   57  49  74 W8        29.73F
6HR MIN TEMP:  52; 6HR MAX TEMP:  58;

WASKISH        SUNNY     61  52  72 SW6       29.74F
BIG FORK       SUNNY     64  45  48 NW6       29.74F
LONGVILLE      CLOUDY    63  54  72 NW8       29.77F
GRAND RAPIDS   SUNNY     63  48  59 NW15      29.75F
CRANE LAKE     CLOUDY    54  52  94 W5        29.75S
ORR            PTSUNNY   57  46  67 NW9       29.72F
COOK           MOSUNNY   61  48  63 W7        29.75F
WALKER         CLOUDY    62  54  74 W9        29.77F
$$
MNZ012-019>021-037-201900-
   Northeast Minnesota

CITY           SKY/WX    TMP DP  RH WIND       PRES   REMARKS
DULUTH         MOSUNNY   66  49  54 W13       29.73F
6HR MIN TEMP:  59; 6HR MAX TEMP:  66;

ELY            CLOUDY    54  50  87 W7        29.74R
HIBBING        SUNNY     66  45  46 NW13G20   29.75S
EVELETH        MOSUNNY   63  46  55 W10       29.75S
DULUTH HARBOR  SUNNY     66  54  63 W13       29.74F
TWO HARBORS    MOSUNNY   64  52  63 NW8       29.70F
SILVER BAY     MOSUNNY   61  55  82 W8        29.70R
GRAND MARAIS     N/A     71  55  56 VRB7      29.65R
G MARAIS ARPRT MOSUNNY   61  48  63 NW7G16    29.68R
$$
MNZ029>031-032-039>041-046>048-054>057-064-201900-
   West Central Minnesota

CITY           SKY/WX    TMP DP  RH WIND       PRES   REMARKS
FERGUS FALLS   SUNNY     72  52  49 SW14      29.79F
WHEATON        SUNNY     73  55  53 SW13      29.82F
MORRIS         SUNNY     73  55  53 W10       29.81F
ALEXANDRIA     SUNNY     68  56  65 W10       29.83F
ELBOW LAKE     FAIR      70  56  61 W10G16    29.81F
WADENA         MOSUNNY   66  55  68 W10G16    29.80S
GLENWOOD       SUNNY     70  55  60 W9        29.84F
APPLETON       SUNNY     75  55  50 W13       29.83F
BENSON         SUNNY     73  57  56 W6        29.83F
ORTONVILLE     MOSUNNY   75  54  46 W10G16    29.83S
MADISON        SUNNY     79  61  53 W9        29.84F
WILLMAR        FAIR      72  55  56 W8        29.85F
$$
MNZ033>034-036-042>043-049>051-058-059-201900-
   Central Minnesota

CITY           SKY/WX    TMP DP  RH WIND       PRES   REMARKS
ST CLOUD       SUNNY     74  56  53 NW13      29.80F
6HR MIN TEMP:  59; 6HR MAX TEMP:  74;

SAUK CENTRE    FAIR      68  55  62 W10G17    29.82F
PAYNESVILLE    SUNNY     68  54  60 SW10G16   29.83F
AITKIN         MOSUNNY   68  55  64 NW3       29.77F
PINE RIVER     CLOUDY    63  54  72 W7        29.82F
BRAINERD       PTSUNNY   64  54  69 W10       29.80F
STAPLES        MOSUNNY   66  54  63 W8        29.80F
LONG PRAIRIE   FAIR      66  55  68 W7        29.82F
LITTLE FALLS   MOSUNNY   66  54  63 W8        29.81F
LITCHFIELD     SUNNY     72  57  60 W10       29.83F
BUFFALO        SUNNY     71  55  56 W10       29.82S
MAPLE LAKE     SUNNY     71  59  64 W9        29.82F
$$
MNZ037-044-045-052-053-201900-
   East Central Minnesota

CITY           SKY/WX    TMP DP  RH WIND       PRES   REMARKS
PRINCETON      SUNNY     72  57  60 W13       29.80F
MORA           MOSUNNY   64  52  63 W10       29.80F
CAMBRIDGE      SUNNY     73  57  56 W13       29.77F
RUSH CITY      MOSUNNY   69  56  62 NW8       29.79F
MOOSE LAKE     MOSUNNY   66  52  59 W7        29.75S
HINCKLEY       MOCLDY    64  54  68 NW9       29.78F
CLOQUET        SUNNY     66  46  48 W15G21    29.75S
MCGREGOR       MOSUNNY   64  52  63 W12G18    29.77F
$$
MNZ071>073-080-081-089-090-097-098-201900-
   Southwest Minnesota

CITY           SKY/WX    TMP DP  RH WIND       PRES   REMARKS
MONTEVIDEO     SUNNY     77  57  50 NW9       29.85F
GRANITE FALLS  SUNNY     74  58  57 W10G16    29.86F
CANBY          SUNNY     76  57  51 W14G20    29.86F
MARSHALL       SUNNY     77  55  47 W13G20    29.85F
REDWOOD FALLS  SUNNY     76  55  48 NW13G18   29.83F
OLIVIA         SUNNY     73  59  60 W8        29.84F
PIPESTONE      SUNNY     77  54  44 NW15      29.90F
WINDOM         SUNNY     77  55  47 W12G17    29.87F
WORTHINGTON    SUNNY     75  55  50 W13G21    29.90S
JACKSON        SUNNY     77  54  44 W13       29.88F
TRACY          SUNNY     77  56  48 W6        29.86F
SLAYTON        SUNNY     75  53  45 W8        29.89F
$$
MNZ065>067-074>077-082>085-091>093-201900-
   South Central Minnesota

CITY           SKY/WX    TMP DP  RH WIND       PRES   REMARKS
MANKATO        SUNNY     73  54  49 NW16      29.83F
NEW ULM        SUNNY     73  57  56 W10       29.84F
ST JAMES       SUNNY     77  55  47 W14       29.86F
FAIRMONT       SUNNY     77  54  44 W16G22    29.86S
GLENCOE        SUNNY     73  53  48 W14       29.82F
FARIBAULT      SUNNY     77  52  41 W10G17    29.82F
OWATONNA       SUNNY     73  54  49 W16G23    29.83S
WASECA         SUNNY     72  50  46 W12G20    29.85S
ALBERT LEA     SUNNY     75  59  57 NW8       29.84S
$$
MNZ078>079-086>088-094>096-201900-
   Southeast Minnesota

CITY           SKY/WX    TMP DP  RH WIND       PRES   REMARKS
ROCHESTER      SUNNY     74  57  55 NW15G23   29.82S
6HR MIN TEMP:  63; 6HR MAX TEMP:  74; 6HR PCP:  0.01;

RED WING       SUNNY     75  55  50 W15       29.78S
STANTON        SUNNY     74  57  53 NW13G18   29.80S
DODGE CENTER   SUNNY     73  57  56 W15G21    29.82F
WINONA         MOSUNNY   73  59  60 W9G16     29.77S
AUSTIN         SUNNY     73  59  60 W15       29.83S
PRESTON        MOSUNNY   72  65  79 W16       29.82S
$$
ABBREVIATIONS USED IN REMARKS
   TC - TEMPERATURES IN CELSIUS
  WCI - WIND CHILL INDEX
   HX - HEAT INDEX
  VSB - VISIBILITY
$$


USA.gov is the U.S. government's official web portal to all federal, state and local government web resources and services.